Location: Bonneuil
(46.1010°N, 2.9693°E)
Time: 16:11:15
(UTC+00:00)

Cosmos 1328 - Pass Details

Date: 09 April 2020
Orbit: 540 x 544 km, 82.5° (Epoch: 28 May)

Event Time Altitude Azimuth Distance (km) Brightness Sun altitude
Rises 19:05:34 0° 353° (N) 2,722 7.7 -7.1°
Reaches altitude 10° 19:07:45 10° 357° (N) 1,824 6.8 -7.5°
Maximum altitude 19:11:44 65° 79° (E) 603 3.8 -8.1°
Drops below altitude 10° 19:15:42 10° 162° (SSE) 1,809 6.1 -8.8°
Sets 19:17:51 0° 166° (SSE) 2,696 7.0 -9.1°
